Location: Unspecified
(48.7670°N, 0.0000°E)
Time: 11:17:08
(UTC+00:00)

Altair - Pass Details

Date: 28 June 2019
Orbit: 1501 x 1683 km, 47.2° (Epoch: 17 July)

Event Time Altitude Azimuth Distance (km) Brightness Sun altitude
Rises 22:06:56 0° 279° (W) 4,749 10.6 -13.4°
Reaches altitude 10° 22:09:58 10° 278° (W) 3,788 10.0 -13.7°
Maximum altitude 22:19:37 75° 195° (SSW) 1,677 7.6 -14.3°
Drops below altitude 10° 22:29:36 10° 113° (ESE) 3,916 9.2 -15.0°
Enters shadow 22:32:35 - 112° (ESE) 4,849 9.7 -15.2°
Sets 22:32:48 0° 112° (ESE) 4,916 - -15.2°
